{"data":{"norad_id":36830,"epoch":"2026-05-25T03:42:39.949056Z","epoch_age_seconds":58304,"freshness":"FRESH","line1":"1 36830U 10037A   26145.15462904 -.00000060  00000+0  00000+0 0  9995","line2":"2 36830   0.0025 150.9949 0003761 298.3549 202.0712  1.00270824 58149","mean_motion":1.00270824,"eccentricity":0.0003761,"inclination_deg":0.0025,"raan_deg":150.9949,"arg_perigee_deg":298.3549,"mean_anomaly_deg":202.0712,"bstar":0,"rev_number":5814,"period_min":1436.1106676455,"perigee_km":35771.006109514,"apogee_km":35802.722623542,"semimajor_km":42165.001366528,"source":"CELESTRAK","updated_at":"2026-05-25T13:38:13.894616Z"}}